Wind_Speed
25 24 23 22 20 19 18 17 16 15 14 13 12 12 11 10 10 9 9 9 9 10 10 11 11 12 12 13 14 14 14 15 15 16 17 18 19 19 20 21 22 23 23
26 26 24 23 22 20 19 18 17 16 15 14 13 13 12 11 11 10 11 11 10 11 11 12 12 13 13 14 14 15 15 16 17 18 18 19 19 20 21 22 23 24 25
27 27 26 24 23 21 20 19 18 17 16 15 14 14 13 12 12 11 11 11 11 11 12 12 13 13 14 14 15 15 16 17 18 18 18 19 20 21 22 23 24 25 25
28 27 27 25 24 22 21 20 19 18 17 16 15 14 13 13 12 12 12 12 12 12 13 13 13 14 14 15 16 16 17 17 18 18 19 20 21 22 23 24 25 25 26
28 28 27 26 25 23 22 21 20 19 18 16 16 15 14 14 13 13 13 13 13 13 13 13 14 15 15 15 16 16 17 18 19 20 21 22 23 24 24 25 26 27 28
29 28 28 27 26 24 23 22 20 20 19 18 17 16 15 14 14 14 13 13 13 13 14 14 15 15 15 16 16 17 18 19 20 21 22 23 24 25 26 27 28 29 30
29 29 28 27 26 25 24 23 22 21 20 19 18 16 15 15 15 14 13 13 13 14 14 15 15 15 16 16 17 18 19 20 22 23 24 24 25 26 27 28 29 30 31
30 29 29 27 26 25 24 23 22 21 20 19 18 17 16 16 15 14 14 14 14 15 15 15 15 16 16 17 18 20 21 22 23 24 24 25 26 27 28 29 30 31 31
30 29 29 27 26 25 24 23 22 21 20 19 18 18 17 16 16 15 15 15 15 15 15 16 16 17 18 19 20 21 22 23 24 24 25 26 27 28 29 30 31 32 32
30 29 29 28 27 26 25 24 23 22 20 19 19 18 17 17 16 16 16 16 16 16 17 17 17 18 19 20 21 22 23 24 24 25 27 28 29 29 30 31 32 33 34
30 30 29 29 28 27 26 25 24 22 21 20 19 19 18 17 17 17 17 17 17 17 18 18 19 20 20 21 22 23 24 25 25 26 28 29 30 31 31 32 33 33 34
31 31 30 29 29 28 27 26 24 23 21 21 20 19 19 18 18 18 18 18 18 18 18 19 19 20 21 22 23 24 25 25 26 27 28 30 31 31 32 33 33 34 34
33 32 31 30 29 29 28 27 25 23 22 22 21 20 19 19 19 19 19 19 19 19 19 19 20 21 22 23 24 25 26 26 27 28 30 31 31 32 33 33 34 34 35
34 33 32 31 29 29 28 27 25 24 23 22 21 21 20 20 20 19 19 19 19 19 19 20 21 22 23 24 25 26 26 27 28 29 30 31 32 33 33 34 35 35 35
34 34 33 31 30 29 28 27 25 24 23 22 21 21 20 20 20 19 19 20 20 20 20 21 22 23 24 24 25 26 27 28 29 30 31 32 33 34 34 35 35 35 36
35 34 33 32 31 30 28 27 26 24 23 22 22 21 21 20 20 20 20 20 20 21 21 22 23 24 24 25 26 27 28 29 30 31 32 33 34 34 35 35 35 36 37
36 35 34 33 31 30 29 28 27 25 24 23 22 21 21 21 20 20 20 20 21 22 23 23 24 24 25 26 27 28 29 30 31 32 33 34 34 35 35 36 36 37 38
38 37 35 34 32 31 30 28 27 26 25 23 23 21 21 21 21 21 21 21 22 23 24 24 25 25 26 27 28 29 30 31 32 33 33 34 35 35 36 36 37 38 38
40 38 37 35 33 32 31 29 28 27 26 24 24 23 22 22 22 22 22 22 23 24 25 25 26 26 27 28 29 30 31 32 33 34 34 35 35 36 36 37 38 38 38
42 40 38 37 35 34 32 30 29 28 27 26 25 24 24 23 23 23 24 24 25 25 26 27 27 28 29 30 30 31 32 33 34 35 35 36 36 37 37 37 38 38 39
45 43 40 38 37 35 33 31 30 29 28 27 26 26 25 25 25 25 26 26 26 27 27 27 28 29 30 31 32 32 33 34 35 35 36 36 37 37 38 38 39 39 40
47 44 42 40 38 36 34 33 32 31 29 28 27 26 26 26 26 26 27 27 28 28 28 29 30 30 31 32 33 33 34 34 35 36 36 37 38 38 38 39 40 40 41
48 46 44 42 40 38 36 35 34 32 31 29 28 28 28 28 28 28 28 29 29 29 30 30 31 31 32 33 34 34 35 35 36 36 37 37 38 38 39 40 41 41 41
50 48 46 44 42 40 39 37 35 34 32 31 30 30 30 30 30 30 30 30 30 31 31 32 32 33 33 34 34 35 36 36 37 37 37 37 38 39 40 41 41 42 43
51 50 48 46 45 42 41 39 37 35 34 33 32 32 31 31 31 31 31 31 31 31 32 33 33 33 34 35 35 36 36 37 38 38 37 38 39 40 41 41 42 43 44
52 51 51 49 47 45 43 41 39 37 36 35 34 34 33 33 32 32 32 32 32 32 33 34 34 34 35 35 36 36 37 38 38 38 39 39 40 41 41 42 43 44 45
Wind_Direction
227 228 228 228 229 230 230 229 229 233 234 236 239 242 247 250 253 259 265 271 277 283 287 291 295 297 300 302 303 302 302 303 304 305 305 304 303 303 303 303 302 302 301
227 228 229 229 230 230 230 230 231 234 236 238 241 245 248 250 253 259 266 272 278 284 288 291 295 297 300 301 301 302 302 303 304 304 303 303 303 303 304 304 303 302 301
228 228 229 229 229 229 230 231 232 234 237 240 242 245 247 250 255 261 267 274 280 284 288 292 295 297 299 300 301 302 304 305 305 305 305 305 305 305 305 304 304 303 302
228 229 228 229 229 229 230 231 233 235 238 240 243 246 248 251 255 261 268 274 279 283 287 291 294 296 298 299 300 302 304 305 306 306 307 306 305 305 305 305 304 303 302
228 228 228 228 228 229 230 231 233 235 239 241 244 246 249 253 257 262 268 273 278 283 287 291 293 296 298 299 301 303 304 305 306 307 306 306 306 307 307 306 305 304 303
228 228 227 227 228 228 229 230 233 236 239 242 244 246 250 253 257 262 267 272 277 282 287 290 293 296 297 299 301 302 304 306 307 308 307 307 307 307 307 306 305 304 304
227 227 226 226 227 228 229 231 233 236 239 242 244 246 250 253 256 260 266 272 277 282 286 290 292 296 298 299 301 302 304 306 307 308 308 308 308 308 308 307 307 306 305
226 225 224 224 225 226 228 231 233 236 238 241 243 245 249 253 256 260 266 272 278 283 287 290 292 296 298 299 300 303 304 305 307 308 308 308 308 309 309 308 308 307 306
224 223 222 222 224 225 227 230 232 235 239 241 242 244 249 253 256 261 267 272 279 283 286 289 291 295 297 299 301 303 304 306 308 309 308 309 309 309 309 309 309 308 307
224 223 222 222 224 225 227 229 232 234 238 241 242 245 250 253 257 263 269 274 279 283 286 288 291 295 298 299 302 303 305 307 309 309 309 309 310 310 310 310 310 309 308
222 221 222 222 224 226 228 230 233 234 238 241 242 246 249 253 260 265 270 274 278 282 285 288 291 295 297 300 302 303 305 307 309 309 310 310 310 311 311 311 310 310 309
221 221 222 223 225 226 228 230 233 235 239 241 243 246 250 255 260 266 269 273 278 282 285 289 292 295 298 300 302 304 306 307 308 309 311 311 311 311 311 311 311 311 310
221 221 222 224 225 226 228 230 233 235 238 241 243 246 250 255 261 265 269 273 278 282 285 289 292 296 299 301 302 305 306 308 309 310 311 312 312 312 312 312 312 312 312
222 221 222 223 225 226 228 229 232 235 237 239 242 246 250 256 260 265 269 273 278 282 285 289 293 297 300 301 303 305 307 308 310 310 312 313 313 313 313 313 312 312 312
222 222 222 223 224 226 227 229 231 234 237 240 243 246 251 256 260 264 268 273 277 281 285 289 293 298 299 301 304 306 308 309 310 311 311 312 313 313 313 313 313 313 313
222 222 223 224 226 227 227 228 230 233 236 240 243 247 252 256 260 264 269 273 277 281 286 290 294 297 299 302 304 306 308 309 310 310 311 312 313 313 313 313 313 313 314
223 223 223 224 225 227 228 229 230 233 236 240 244 248 252 256 261 265 269 273 278 282 287 291 294 297 300 302 304 306 307 309 310 311 312 312 312 313 313 313 313 313 314
223 223 223 224 225 226 227 229 231 234 237 240 244 248 253 257 261 264 269 274 279 283 287 291 294 297 299 301 303 305 307 308 310 311 311 312 312 313 313 313 313 313 314
223 223 224 225 226 226 228 230 232 235 237 240 244 249 254 258 261 265 269 274 280 284 287 289 293 296 298 301 303 305 306 308 309 310 311 311 312 313 313 313 313 313 314
223 224 224 225 227 228 230 231 233 235 238 241 245 250 254 258 261 266 269 274 280 284 287 289 292 295 297 300 302 304 305 307 309 310 310 311 311 312 313 313 313 313 313
224 224 225 227 229 230 232 233 235 237 240 243 247 252 255 259 262 265 269 275 279 283 286 289 292 295 297 299 301 303 304 306 308 309 309 310 311 312 312 313 313 312 312
225 225 226 228 230 232 233 235 236 238 240 244 248 252 256 259 262 266 270 274 279 283 286 289 291 294 297 299 301 302 303 305 306 308 308 309 310 311 311 312 312 312 312
226 226 227 229 231 233 234 235 237 239 242 246 250 253 257 260 263 266 271 275 279 282 285 288 291 294 296 298 300 301 303 304 305 307 307 308 309 310 311 312 312 312 311
227 228 229 230 232 233 235 236 238 241 244 247 251 254 257 261 264 267 271 275 278 281 285 288 290 292 294 297 299 300 302 303 305 306 307 308 308 309 310 310 311 311 311
229 229 230 231 233 234 235 237 239 242 245 248 251 255 258 261 264 267 271 274 277 281 284 287 289 291 293 295 298 299 301 302 304 305 306 307 307 308 309 310 310 310 311
229 230 230 231 233 234 236 238 240 242 246 249 252 256 258 261 264 268 270 273 276 280 283 286 288 290 292 295 297 298 300 302 303 304 305 306 307 308 309 310 310 310 310
Height
5853 5855 5858 5860 5862 5864 5866 5867 5869 5871 5872 5873 5874 5875 5875 5876 5877 5877 5878 5878 5878 5878 5878 5878 5877 5877 5876 5876 5875 5874 5873 5873 5872 5871 5870 5868 5867 5866 5865 5863 5862 5861 5859
5850 5852 5855 5857 5859 5861 5863 5865 5867 5869 5870 5871 5872 5873 5874 5874 5875 5876 5876 5876 5877 5877 5876 5876 5876 5875 5875 5874 5873 5872 5871 5871 5870 5869 5867 5866 5865 5863 5862 5860 5859 5857 5856
5846 5849 5851 5854 5856 5858 5861 5863 5864 5866 5868 5869 5870 5871 5872 5873 5873 5874 5874 5875 5875 5875 5875 5874 5874 5873 5873 5872 5871 5870 5869 5868 5867 5866 5865 5863 5862 5860 5859 5857 5856 5854 5852
5842 5845 5848 5850 5853 5855 5858 5860 5862 5864 5865 5867 5868 5869 5870 5871 5871 5872 5873 5873 5873 5873 5873 5872 5872 5871 5871 5870 5869 5868 5867 5866 5865 5864 5862 5861 5859 5857 5856 5854 5852 5850 5848
5838 5841 5844 5847 5849 5852 5855 5857 5859 5861 5863 5864 5865 5867 5868 5869 5869 5870 5870 5871 5871 5871 5871 5870 5870 5869 5868 5868 5867 5865 5864 5863 5862 5861 5859 5858 5856 5854 5852 5850 5848 5846 5844
5834 5837 5839 5843 5846 5849 5851 5854 5856 5858 5860 5862 5863 5864 5865 5866 5867 5868 5868 5868 5869 5869 5869 5868 5868 5867 5866 5865 5864 5863 5862 5860 5859 5858 5856 5854 5852 5850 5848 5846 5844 5842 5839
5829 5832 5835 5839 5842 5845 5848 5850 5853 5855 5857 5859 5860 5862 5863 5864 5865 5865 5866 5866 5866 5866 5866 5866 5865 5864 5863 5862 5861 5860 5859 5857 5856 5854 5852 5850 5848 5846 5844 5842 5839 5837 5834
5825 5828 5831 5835 5838 5841 5844 5847 5849 5852 5854 5856 5857 5859 5860 5861 5862 5863 5863 5864 5864 5864 5863 5863 5862 5862 5861 5859 5858 5857 5856 5854 5852 5851 5848 5846 5844 5842 5840 5837 5835 5832 5829
5820 5824 5827 5831 5834 5837 5840 5843 5846 5848 5850 5852 5854 5855 5857 5858 5859 5860 5861 5861 5861 5861 5861 5860 5859 5859 5858 5856 5855 5854 5852 5850 5849 5847 5844 5842 5840 5837 5835 5832 5830 5827 5824
5816 5819 5823 5826 5830 5833 5836 5839 5842 5844 5847 5849 5850 5852 5854 5855 5856 5857 5857 5858 5858 5858 5857 5857 5856 5855 5854 5853 5852 5850 5848 5847 5845 5843 5840 5838 5835 5833 5830 5827 5824 5821 5818
5811 5815 5818 5822 5826 5829 5832 5835 5838 5840 5843 5845 5847 5849 5850 5852 5853 5854 5854 5854 5855 5854 5854 5854 5853 5852 5851 5849 5848 5846 5845 5843 5841 5838 5836 5833 5830 5828 5825 5822 5819 5816 5812
5806 5810 5814 5818 5821 5825 5828 5831 5834 5836 5839 5841 5843 5845 5846 5848 5849 5850 5851 5851 5851 5851 5851 5850 5849 5848 5847 5846 5844 5842 5840 5839 5837 5834 5831 5828 5825 5822 5819 5816 5813 5810 5807
5801 5805 5809 5813 5816 5820 5823 5827 5829 5832 5835 5837 5839 5841 5843 5844 5845 5846 5847 5847 5847 5847 5847 5846 5845 5844 5843 5841 5840 5838 5836 5834 5832 5829 5826 5823 5820 5817 5814 5811 5808 5804 5801
5796 5800 5804 5808 5811 5815 5819 5822 5825 5828 5830 5833 5835 5837 5838 5840 5841 5842 5843 5843 5843 5843 5843 5842 5841 5840 5839 5837 5835 5834 5831 5829 5827 5824 5821 5818 5815 5812 5809 5805 5802 5798 5795
5790 5794 5799 5803 5807 5810 5814 5817 5821 5823 5826 5828 5830 5832 5834 5835 5837 5838 5838 5839 5839 5839 5838 5838 5837 5835 5834 5833 5831 5829 5827 5824 5822 5819 5816 5813 5810 5806 5803 5799 5796 5792 5788
5785 5789 5794 5798 5802 5805 5809 5813 5816 5819 5821 5824 5826 5828 5830 5831 5832 5833 5834 5834 5834 5834 5834 5833 5832 5831 5829 5828 5826 5824 5821 5819 5817 5814 5810 5807 5804 5801 5797 5793 5790 5786 5782
5779 5784 5789 5793 5797 5800 5804 5808 5811 5814 5817 5819 5821 5823 5825 5826 5827 5828 5829 5830 5830 5830 5829 5828 5827 5826 5825 5823 5821 5819 5816 5814 5811 5808 5805 5802 5798 5795 5791 5788 5784 5780 5776
5773 5778 5783 5788 5792 5796 5799 5803 5806 5809 5812 5815 5817 5819 5820 5821 5823 5824 5824 5825 5825 5825 5824 5823 5822 5821 5819 5818 5816 5813 5811 5808 5806 5803 5799 5796 5793 5789 5785 5782 5778 5774 5769
5767 5772 5777 5782 5786 5790 5794 5798 5801 5804 5807 5810 5812 5814 5815 5817 5818 5819 5819 5820 5820 5819 5819 5818 5817 5816 5814 5812 5810 5808 5805 5803 5800 5797 5794 5790 5787 5783 5779 5775 5771 5767 5763
5760 5766 5771 5776 5780 5784 5788 5792 5796 5799 5802 5805 5807 5809 5810 5812 5813 5814 5814 5815 5814 5814 5813 5812 5811 5810 5808 5807 5805 5802 5800 5797 5794 5791 5787 5784 5781 5777 5773 5769 5765 5760 5756
5753 5759 5764 5769 5774 5778 5783 5787 5791 5794 5796 5799 5801 5803 5805 5806 5807 5808 5809 5809 5809 5808 5808 5807 5806 5804 5803 5801 5799 5796 5794 5791 5788 5785 5781 5778 5774 5770 5766 5762 5758 5753 5749
5745 5752 5757 5763 5768 5773 5777 5781 5784 5787 5790 5793 5795 5798 5799 5800 5801 5802 5803 5803 5803 5803 5802 5801 5800 5798 5797 5795 5793 5790 5788 5786 5782 5778 5775 5771 5767 5764 5760 5755 5751 5746 5742
5737 5744 5750 5756 5761 5766 5770 5774 5777 5781 5784 5787 5790 5792 5793 5794 5795 5796 5797 5797 5797 5796 5796 5795 5793 5792 5790 5788 5786 5784 5781 5779 5776 5772 5768 5765 5761 5757 5753 5748 5744 5739 5734
5730 5736 5742 5748 5753 5758 5762 5767 5771 5775 5778 5781 5783 5785 5786 5788 5789 5790 5790 5791 5791 5790 5789 5788 5787 5785 5784 5781 5779 5777 5774 5771 5769 5765 5762 5758 5754 5750 5746 5741 5736 5731 5726
5721 5727 5734 5739 5745 5750 5755 5760 5764 5768 5771 5773 5776 5778 5780 5781 5782 5783 5784 5784 5784 5783 5783 5781 5780 5779 5777 5775 5772 5770 5767 5764 5761 5758 5755 5751 5747 5742 5738 5733 5729 5723 5718
5711 5718 5724 5730 5736 5742 5747 5752 5756 5760 5763 5766 5769 5771 5773 5774 5775 5776 5777 5777 5777 5777 5776 5774 5773 5771 5770 5768 5765 5762 5760 5757 5754 5750 5747 5743 5739 5735 5730 5725 5720 5715 5710